FDX9900 KDEN-KSLC

Flight info

Callsign FDX9900
Flight time N/A
Altitude 30000
Route ZIMMR4 CHNGY EKR PITTT2
Aircraft B77L/H-SDE1E2E3FGHIJ2J3J4J5M1RWXY/LB1D1

Departure

Time 2026-05-04 19:57
Airport Denver International Airport (KDEN)

Arrival

Time N/A
Airport Salt Lake City International Airport (KSLC)
Time Latitude Longitude Altitude Speed Heading
2026-05-04 19:17 39.83094 -104.67486 5391 ft 0 kts 359°
2026-05-04 19:41 39.83083 -104.67486 5381 ft 4 kts 359°
2026-05-04 19:41 39.83062 -104.67486 5388 ft 4 kts
2026-05-04 19:41 39.83038 -104.67495 5388 ft 4 kts 32°
2026-05-04 19:41 39.83020 -104.67515 5384 ft 4 kts 61°
2026-05-04 19:42 39.83013 -104.67543 5384 ft 2 kts 90°
2026-05-04 19:42 39.83013 -104.67546 5384 ft 1 kts 91°
2026-05-04 19:44 39.83012 -104.67544 5384 ft 1 kts 91°
2026-05-04 19:44 39.83012 -104.67502 5384 ft 9 kts 91°
2026-05-04 19:45 39.83011 -104.67455 5385 ft 0 kts 91°
2026-05-04 19:45 39.83011 -104.67454 5385 ft 2 kts 91°
2026-05-04 19:45 39.82961 -104.67390 5390 ft 13 kts 159°
2026-05-04 19:45 39.82940 -104.67379 5387 ft 0 kts 158°
2026-05-04 19:46 39.82933 -104.67354 5390 ft 8 kts 89°
2026-05-04 19:46 39.82970 -104.67216 5395 ft 25 kts 99°
2026-05-04 19:47 39.82938 -104.66960 5409 ft 30 kts 89°
2026-05-04 19:47 39.82938 -104.66695 5416 ft 27 kts 91°
2026-05-04 19:47 39.82929 -104.66446 5440 ft 27 kts 91°
2026-05-04 19:47 39.82944 -104.66299 5445 ft 0 kts 36°
2026-05-04 19:48 39.82960 -104.66286 5445 ft 5 kts 30°
2026-05-04 19:48 39.83043 -104.66273 5443 ft 21 kts 341°
2026-05-04 19:48 39.83210 -104.66319 5438 ft 30 kts 15°
2026-05-04 19:48 39.83437 -104.66265 5435 ft 33 kts
2026-05-04 19:49 39.83660 -104.66259 5421 ft 32 kts
2026-05-04 19:49 39.83877 -104.66256 5418 ft 30 kts 360°
2026-05-04 19:49 39.84085 -104.66253 5416 ft 30 kts
2026-05-04 19:49 39.84291 -104.66252 5416 ft 30 kts 360°
2026-05-04 19:50 39.84499 -104.66252 5411 ft 30 kts 360°
2026-05-04 19:50 39.84708 -104.66250 5408 ft 30 kts
2026-05-04 19:50 39.84916 -104.66248 5402 ft 30 kts
2026-05-04 19:50 39.85125 -104.66246 5399 ft 29 kts
2026-05-04 19:51 39.85205 -104.66364 5404 ft 21 kts 270°
2026-05-04 19:51 39.85221 -104.66550 5394 ft 21 kts 293°
2026-05-04 19:51 39.85239 -104.66736 5398 ft 21 kts 272°
2026-05-04 19:51 39.85244 -104.66926 5386 ft 21 kts 272°
2026-05-04 19:52 39.85248 -104.67115 5385 ft 21 kts 271°
2026-05-04 19:52 39.85248 -104.67305 5390 ft 21 kts 270°
2026-05-04 19:52 39.85243 -104.67494 5390 ft 21 kts 267°
2026-05-04 19:52 39.85238 -104.67683 5390 ft 21 kts 269°
2026-05-04 19:53 39.85237 -104.67872 5389 ft 21 kts 270°
2026-05-04 19:53 39.85236 -104.68062 5389 ft 21 kts 270°
2026-05-04 19:53 39.85228 -104.68250 5387 ft 21 kts 255°
2026-05-04 19:53 39.85201 -104.68442 5375 ft 22 kts 268°
2026-05-04 19:54 39.85201 -104.68644 5369 ft 24 kts 270°
2026-05-04 19:54 39.85199 -104.68875 5359 ft 27 kts 268°
2026-05-04 19:54 39.85193 -104.69121 5352 ft 28 kts 269°
2026-05-04 19:54 39.85196 -104.69374 5344 ft 28 kts 277°
2026-05-04 19:55 39.85216 -104.69624 5341 ft 26 kts 298°
2026-05-04 19:55 39.85337 -104.69661 5341 ft 0 kts
2026-05-04 19:56 39.85508 -104.69660 5344 ft 55 kts
2026-05-04 19:56 39.86098 -104.69649 5341 ft 113 kts
2026-05-04 19:56 39.87058 -104.69662 5344 ft 160 kts 360°
2026-05-04 19:57 39.88299 -104.69630 5373 ft 190 kts 359°
2026-05-04 19:57 39.89638 -104.69582 5697 ft 195 kts 358°
2026-05-04 19:57 39.91036 -104.69510 5938 ft 207 kts
2026-05-04 19:57 39.92527 -104.69417 6163 ft 221 kts
2026-05-04 19:58 39.94149 -104.69316 6780 ft 250 kts
2026-05-04 19:58 39.95972 -104.69206 7651 ft 271 kts 360°
2026-05-04 19:58 39.97855 -104.69145 8882 ft 272 kts 350°
2026-05-04 19:58 39.99554 -104.70075 10030 ft 266 kts 316°
2026-05-04 19:59 40.00519 -104.72064 11251 ft 256 kts 283°
2026-05-04 19:59 40.00728 -104.74197 12437 ft 258 kts 269°
2026-05-04 19:59 40.00382 -104.76570 13199 ft 278 kts 252°
2026-05-04 19:59 39.99720 -104.78964 14200 ft 280 kts 250°
2026-05-04 20:00 39.99036 -104.81323 15336 ft 280 kts 250°
2026-05-04 20:00 39.98349 -104.83705 16117 ft 289 kts 250°
2026-05-04 20:00 39.97649 -104.86167 17160 ft 290 kts 250°
2026-05-04 20:00 39.96989 -104.88521 17887 ft 298 kts 251°
2026-05-04 20:01 39.96285 -104.91060 18630 ft 304 kts 251°
2026-05-04 20:01 39.95554 -104.93709 19301 ft 310 kts 251°
2026-05-04 20:01 39.94828 -104.96343 19963 ft 316 kts 251°
2026-05-04 20:01 39.94115 -104.99078 20639 ft 320 kts 256°
2026-05-04 20:02 39.93687 -105.01943 21334 ft 324 kts 263°
2026-05-04 20:02 39.93515 -105.04835 22094 ft 327 kts 269°
2026-05-04 20:02 39.93559 -105.07773 22715 ft 333 kts 271°
2026-05-04 20:02 39.93650 -105.10846 23174 ft 343 kts 271°
2026-05-04 20:03 39.93742 -105.13991 23659 ft 350 kts 271°
2026-05-04 20:03 39.93821 -105.17173 24183 ft 354 kts 271°
2026-05-04 20:03 39.93893 -105.20387 24765 ft 355 kts 271°
2026-05-04 20:03 39.94021 -105.23605 25355 ft 357 kts 274°
2026-05-04 20:04 39.94265 -105.26825 25910 ft 357 kts 275°
2026-05-04 20:04 39.94535 -105.30041 26497 ft 357 kts 275°
2026-05-04 20:04 39.94799 -105.33260 27064 ft 358 kts 275°
2026-05-04 20:04 39.95055 -105.36495 27621 ft 358 kts 275°
2026-05-04 20:05 39.95307 -105.39726 28152 ft 359 kts 275°
2026-05-04 20:05 39.95561 -105.42966 28660 ft 360 kts 275°
2026-05-04 20:05 39.95817 -105.46223 29119 ft 362 kts 275°
2026-05-04 20:05 39.96072 -105.49483 29587 ft 363 kts 275°
2026-05-04 20:06 39.96329 -105.52773 29845 ft 366 kts 275°
2026-05-04 20:06 39.96836 -105.59353 29877 ft 368 kts 275°
2026-05-04 20:07 39.97332 -105.65883 29922 ft 364 kts 275°
2026-05-04 20:07 39.97701 -105.70776 29964 ft 363 kts 275°